User: anonymous
Location: Unspecified
(0.0000°N, 0.0000°E)
Time: 02:40:28
(UTC+00:00)
Language:

N. Korean satellite - Orbit

View from above orbital plane
View from above orbital plane
View from above satellite
View from above satellite

Ground track
Ground track

The orbit data is extracted from the following two-line orbital elements,

1 39026U 12072A   14112.79568830  .00009798  00000-0  53069-3 0   335
2 39026 097.3341 154.4717 0051867 259.9579 099.5798 15.13640787 74999
Epoch (UTC): 22 April 2014 19:05:47
Eccentricity: 0.0051867
inclination: 97.3341°
perigee height: 489 km
apogee height: 561 km
right ascension of ascending node: 154.4717°
argument of perigee: 259.9579°
revolutions per day: 15.13640787
mean anomaly at epoch: 99.5798°
orbit number at epoch: 7499

The dashed part of the orbit path shows where the satellite is in the earth's shadow,  

DLR